Tracking 19969 objects as of 12-Nov-2019
Live streaming from Space Station
objects crossing your sky now
Track the group of recently launched Starlink satellites

USA 7

Track USA 7 now!
USA 7 is classified as:


NORAD ID: 15453
Int'l Code: 1984-129A
Perigee: 36,184.8 km
Apogee: 36,206.5 km
Inclination: 15.1 °
Period: 1,456.7 minutes
Semi major axis: 42566 km
RCS: Unknown
Launch date: December 22, 1984
Source: United States (US)
Launch site: AIR FORCE EASTERN TEST RANGE (AFETR)
aabbcc
Your satellite tracking list
Your tracking list is empty




NASA's NSSDC Master Catalog

Two Line Element Set (TLE):
1 15453U 84129A   19314.65039413  .00000036  00000-0  00000+0 0  9999
2 15453  15.1345 341.7583 0002552 312.9503  41.3144  0.98854993  2191
Source of the keplerian elements: McCants